Home   Weather   Oftringen   Past weeks

Flag for Switzerland Past Weather in Oftringen, Aargau, Switzerland — Yesterday and Last 2 Weeks

Now
59 °F

Cool.


Feels Like: 59 °F
Forecast: 46 / 73 °F
Wind: 5 mph from Southwest

Location: Wynau

Current Time: Sep 28, 2016 at 12:20:51 PM

Latest Report: Sep 28, 2016 at 11:00 AM


Visibility: N/A

Pressure: 30.46 "Hg

Humidity: 80%

Dew Point: 53 °F

Location of OftringenLocation

Past Weather in Oftringen — Graph

°F

Oftringen Temperature Yesterday

Maximum temperature yesterday: 70 °F (at 5:00 PM)
Minimum temperature yesterday: 53 °F (at 11:00 PM)
Average temperature yesterday: 59 °F

High & Low Weather Summary for the Past Weeks

 TemperatureHumidityPressure
High83 °F (Sep 14, 4:00 PM)100% (Sep 14, 7:00 AM)30.47 "Hg (Sep 14, 7:00 AM)
Low44 °F (Sep 22, 6:00 AM)44% (Sep 14, 3:00 PM)29.78 "Hg (Sep 14, 6:00 PM)
Average58 °F86%30.09 "Hg
* Reported Sep 13 11:00 AM — Sep 28 11:00 AM, Oftringen, Weather by CustomWeather, © 2016

Note: Actual official high and low records may vary slightly from our data, if they occured in-between our weather recording intervals... More about our weather records

Advertising

Oftringen Weather History for the Previous 24 Hours

Scroll right to see more
 ConditionsComfort  
Time TempWeatherWind HumidityBarometerVisibility
11:00 AM
Wed, Sep 28
59 °FCool.5 mph80%30.46 "HgN/A
10:00 AM54 °FCool.2 mph91%30.47 "HgN/A
9:00 AM51 °FCool.1 mph94%30.47 "HgN/A
8:00 AM50 °FCool.1 mph99%30.46 "HgN/A
7:00 AM50 °FCool.1 mph100%30.45 "HgN/A
6:00 AM48 °FCool.1 mph100%30.45 "HgN/A
5:00 AM48 °FCool.1 mph100%30.44 "HgN/A
4:00 AM49 °FCool.1 mph96%30.43 "HgN/A
3:00 AM48 °FCool.No wind100%30.43 "HgN/A
2:00 AM50 °FCool.1 mph100%30.41 "HgN/A
1:00 AM51 °FCool.1 mph99%30.40 "HgN/A
12:00 AM52 °FCool.No wind100%30.39 "HgN/A
11:00 PM
Tue, Sep 27
53 °FCool.No wind99%30.38 "HgN/A
10:00 PM54 °FCool.No wind96%30.37 "HgN/A
9:00 PM56 °FCool.No wind95%30.36 "HgN/A
8:00 PM59 °FCool.1 mph87%30.33 "HgN/A
7:00 PM61 °FCool.2 mph83%30.31 "HgN/A
6:00 PM68 °FMild.6 mph60%30.27 "HgN/A
5:00 PM70 °FMild.5 mph53%30.25 "HgN/A
2:00 PM65 °FMild.2 mph67%30.27 "HgN/A
1:00 PM64 °FMild.2 mph70%30.28 "HgN/A
12:00 PM64 °FMild.6 mph73%30.29 "HgN/A
Weather by CustomWeather, © 2016

See weather overviewHow to use our weather pages